SCP
0 0 0 0 0 0 0 0 0 0 0 0 0 0 0 0 0 0 0 0 0 0 0 0 0 0 0 0 0 0 0 0 0 0 0 0 0 0 0 0 0 0 0 0
0 0 0 0 0 0 0 0 0 0 0 0 0 0 0 0 0 0 0 0 0 0 0 0 0 0 0 0 0 0 0 0 0 0 0 0 0 0 0 0 0 0 0 0
0 0 0 0 0 0 0 0 0 0 0 0 0 0 0 0 0 0 0 0 0 0 0 0 0 0 0 0 0 0 0 0 0 0 0 0 0 0 0 0 0 0 0 0
0 0 0 0 0 0 0 0 0 0 0 0 0 0 0 0 0 0 0 0 0 0 0 0 0 0 0 0 0 0 0 0 0 0 0 0 0 0 0 0 0 0 0 0
0 0 0 0 0 0 0 0 0 0 0 0 0 0 0 0 0 0 0 0 0 0 0 0 0 0 0 0 0 0 0 0 0 0 0 0 0 0 0 0 0 0 0 0
0 0 0 0 0 0 0 0 0 0 0 0 0 0 0 0 0 0 0 0 0 0 0 0 0 0 0 0 0 0 0 0 0 0 0 0 0 0 0 0 0 0 0 0
0 0 0 0 0 0 0 0 0 0 0 0 0 0 0 0 0 0 0 0 0 0 0 0 0 0 0 0 0 0 0 0 0 0 0 0 0 0 0 0 0 0 0 0
0 0 0 0 0 0 0 0 0 0 0 0 0 0 0 0 0 0 0 0 0 0 0 0 0 0 0 0 0 0 0 0 0 0 0 0 0 0 0 0 0 0 0 0
0 0 0 0 0 0 0 0 0 0 0 0 0 0 0 0 0 0 0 0 0 0 0 0 0 0 0 0 0 0 0 0 0 0 0 0 0 0 0 0 0 0 0 0
0 0 0 0 0 0 0 0 0 0 0 0 0 0 0 0 0 0 0 0 0 0 0 0 0 0 0 0 0 0 0 0 0 0 0 0 0 0 0 0 0 0 0 0
0 0 0 0 0 0 0 0 0 0 0 0 0 0 0 0 0 0 0 0 0 0 0 0 0 0 0 0 0 0 0 0 0 0 0 0 0 0 0 0 0 0 0 0
0 0 0 0 0 0 0 0 0 0 0 0 0 0 0 0 0 0 0 0 0 0 0 0 0 0 0 0 0 0 0 0 0 0 0 0 0 0 0 0 0 0 0 0
0 0 0 0 0 0 0 0 0 0 0 0 0 0 0 0 0 0 0 0 0 0 0 0 0 0 0 0 0 0 0 0 0 0 0 0 0 0 0 0 0 0 0 0
0 0 0 0 0 0 0 0 0 0 0 0 0 0 0 0 0 0 0 0 0 0 0 0 0 0 0 0 0 0 0 0 0 0 0 0 0 0 0 0 0 0 0 0
0 0 0 0 0 0 0 0 0 0 0 0 0 0 0 0 0 0 0 0 0 0 0 0 0 0 0 0 0 0 0 0 0 0 0 0 0 0 0 0 0 0 0 0
0 0 0 0 0 0 0 0 0 0 0 0 0 0 0 0 0 0 0 0 0 0 0 0 0 0 0 0 0 0 0 0 0 0 0 0 0 0 0 0 0 0 0 0
0 0 0 0 0 0 0 0 0 0 0 0 0 0 0 0 0 0 0 0 0 0 0 0 0 0 0 0 0 0 0 0 0 0 0 0 0 0 0 0 0 0 0 0
0 0 0 0 0 0 0 0 0 0 0 0 0 0 0 0 0 0 0 0 0 0 0 0 0 0 0 0 0 0 0 0 0 0 0 0 0 0 0 0 0 0 0 0
0 0 0 0 0 0 0 0 0 0 0 0 0 0 0 0 0 0 0 0 0 0 0 0 0 0 0 0 0 0 0 0 0 0 0 0 0 0 0 0 0 0 0 0
0 0 0 0 0 0 0 0 0 0 0 0 0 0 0 0 0 0 0 0 0 0 0 0 0 0 0 0 0 0 0 0 0 0 0 0 0 0 0 0 0 0 0 0
0 0 0 0 0 0 0 0 0 0 0 0 0 0 0 0 0 0 0 0 0 0 0 0 0 0 0 0 0 0 0 0 0 0 0 0 0 0 0 0 0 0 0 0
0 0 0 0 0 0 0 0 0 0 0 0 0 0 0 0 0 0 0 0 0 0 0 0 0 0 0 0 0 0 0 0 0 0 0 0 0 0 0 0 0 0 0 0
0 0 0 0 0 0 0 0 0 0 0 0 0 0 0 0 0 0 0 0 0 0 0 0 0 0 0 0 0 0 0 0 0 0 0 0 0 0 0 0 0 0 0 0
0 0 0 0 0 0 0 0 0 0 0 0 0 0 0 0 0 0 0 0 0 0 0 0 0 0 0 0 0 0 0 0 0 0 0 0 0 0 0 0 0 0 0 0
0 0 0 0 0 0 0 0 0 0 0 0 0 0 0 0 0 0 0 0 0 0 0 0 0 0 0 0 0 0 0 0 0 0 0 0 0 0 0 0 0 0 0 0
0 0 0 0 0 0 0 0 0 0 0 0 0 0 0 0 0 0 0 0 0 0 0 0 0 0 0 0 0 0 0 0 0 0 0 0 0 0 0 0 0 0 0 0
0 0 0 0 0 0 0 0 0 0 0 0 0 0 0 0 0 0 0 0 0 0 0 0 0 0 0 0 0 0 0 0 0 0 0 0 0 0 0 0 0 0 0 0
Wind_Speed
4 3 1 3 4 4 6 6 7 7 6 8 5 4 4 3 4 6 6 7 7 7 7 7 7 7 7 7 7 6 6 6 6 6 5 4 4 4 4 4 4 4 4 4
3 1 1 4 6 5 6 4 6 6 9 5 4 2 3 4 5 6 7 7 8 8 8 8 8 8 9 8 8 6 6 6 6 6 5 4 4 4 4 4 4 4 4 4
4 3 3 7 5 5 4 4 5 7 7 3 4 4 4 5 5 6 7 7 8 8 8 8 8 8 9 9 8 6 6 6 6 6 5 5 5 4 4 4 4 4 4 4
2 4 5 6 1 2 3 3 4 4 4 4 5 5 4 4 4 5 6 7 8 8 8 8 8 8 8 8 7 6 6 6 6 5 5 5 4 4 4 4 4 4 4 4
1 2 8 5 0 1 2 5 3 4 5 5 5 4 4 3 2 4 5 6 7 7 8 8 9 8 8 8 7 6 7 7 6 6 5 5 5 5 4 4 4 4 4 4
2 2 7 5 1 1 1 5 1 2 4 4 4 4 4 3 5 6 6 6 7 7 7 8 8 8 7 7 7 7 7 7 6 6 5 5 5 5 4 4 4 4 4 4
4 5 8 3 2 1 2 5 3 2 3 2 2 4 5 6 6 6 6 7 7 7 7 7 8 7 7 7 7 7 7 7 6 5 5 5 4 4 4 4 4 3 4 4
3 4 8 1 2 3 4 3 3 3 3 3 5 5 5 6 6 6 7 7 7 7 7 7 7 6 7 8 8 7 7 7 6 6 5 4 4 4 3 3 3 3 3 3
6 6 2 2 2 2 2 3 3 3 4 3 4 5 5 5 5 6 6 7 6 6 8 8 7 6 7 8 8 7 7 7 6 6 5 4 3 3 3 2 2 3 3 3
3 5 4 3 3 3 3 4 4 4 4 3 4 5 5 5 5 6 6 6 6 6 7 8 8 8 7 8 7 7 7 7 6 5 5 4 3 3 3 2 2 3 3 3
4 5 5 3 2 3 4 4 4 4 3 3 3 4 4 4 5 5 6 6 6 6 7 8 8 8 8 8 7 7 7 6 6 5 5 4 3 3 3 3 3 3 2 2
5 4 3 5 3 3 3 4 4 4 4 3 3 3 3 4 4 5 6 6 6 6 7 8 8 8 8 8 7 6 6 6 5 4 4 4 4 4 5 5 7 7 6 5
3 3 3 4 4 3 3 4 4 4 3 4 3 3 3 4 4 5 5 6 6 7 7 8 8 8 8 8 8 6 6 6 5 4 4 4 4 4 5 6 6 7 7 7
2 1 3 3 3 4 4 4 4 3 3 3 3 3 3 4 4 5 6 6 6 6 7 7 8 8 8 8 8 7 6 7 6 4 4 3 3 3 3 4 5 5 6 7
2 2 4 4 4 4 3 3 3 3 4 3 3 3 3 4 5 6 6 6 6 6 7 7 8 8 8 8 8 7 6 4 4 4 3 3 3 3 3 3 3 4 4 5
3 3 3 3 4 4 3 3 3 4 4 4 4 4 4 4 5 6 5 5 5 7 7 7 8 8 8 7 7 6 5 8 7 4 4 3 3 3 3 3 3 3 3 4
1 3 3 4 4 4 3 3 3 4 4 4 5 5 4 5 5 6 6 5 5 6 7 7 7 8 7 7 6 5 5 6 9 5 4 4 3 3 3 3 3 3 3 4
4 4 3 4 4 4 4 4 3 4 4 4 4 4 4 4 5 7 7 6 6 7 6 6 7 7 7 7 5 4 4 4 4 4 4 4 3 3 3 3 4 4 4 4
3 4 4 4 3 3 4 4 4 4 4 3 3 4 4 5 5 6 6 6 6 7 7 7 11 8 7 8 7 4 4 4 4 4 3 5 5 3 3 3 4 4 4 4
3 3 3 3 3 3 3 4 3 3 3 3 3 4 5 5 5 5 5 5 5 5 7 8 7 6 6 7 8 4 4 4 4 4 4 3 3 4 3 4 4 4 4 3
3 3 3 3 3 3 3 3 3 4 4 3 3 4 5 6 5 4 4 6 6 6 7 10 6 5 5 6 7 4 4 4 4 4 4 4 4 4 4 4 4 4 4 3
3 3 3 3 3 4 3 3 3 4 4 4 4 4 5 5 5 5 5 5 6 10 7 5 5 8 8 7 3 3 4 4 4 4 4 4 4 4 4 4 4 4 4 3
3 3 3 3 3 4 4 3 3 3 4 4 5 5 5 5 4 4 6 4 5 10 7 5 9 12 11 5 3 3 4 4 4 4 4 4 4 4 4 4 4 4 4 4
2 3 3 2 2 3 4 4 4 4 4 5 5 5 4 4 4 4 4 9 11 11 6 8 13 13 10 3 3 3 4 4 4 4 4 4 4 4 4 4 4 4 4 4
2 3 2 2 3 3 4 4 4 4 4 4 5 5 4 3 4 5 5 6 10 10 6 9 12 12 6 4 4 4 4 4 4 4 4 4 4 4 4 4 4 5 4 4
2 3 3 3 3 3 3 3 3 3 3 4 4 4 3 3 4 4 4 5 7 9 6 5 6 7 5 4 4 5 4 5 6 5 4 5 5 5 5 5 6 5 5 5
2 2 2 3 3 3 3 3 3 4 4 4 5 4 4 4 4 4 5 5 5 5 5 5 4 4 5 5 5 5 5 4 5 5 5 5 5 5 5 6 5 5 5 5
Wind_Direction
254 262 230 239 246 201 198 208 217 247 248 273 284 291 299 313 323 327 330 334 334 331 328 327 327 326 324 320 317 314 311 306 300 298 290 286 283 280 277 273 270 267 266 266
276 236 239 274 262 233 228 235 245 271 277 285 301 320 312 317 320 320 323 327 328 330 330 327 326 323 322 318 315 313 307 302 303 305 298 291 289 286 283 278 276 271 263 262
271 303 334 283 247 195 207 218 205 234 258 313 320 310 303 307 311 310 316 321 325 326 323 321 318 316 313 312 312 311 305 304 303 301 298 294 293 291 285 279 277 272 267 262
296 8 259 249 74 160 203 243 232 257 287 300 294 297 294 291 293 306 316 320 320 319 318 317 314 313 311 312 312 310 308 307 302 297 293 292 289 287 286 281 274 272 272 265
172 264 274 289 255 154 217 277 233 248 283 303 315 317 301 316 328 311 311 310 310 311 311 313 314 314 316 316 314 314 312 309 306 300 292 290 285 282 281 283 278 276 277 274
160 222 253 266 297 286 122 284 279 245 283 305 343 326 301 333 331 321 318 317 317 317 316 316 316 319 318 315 317 314 310 306 303 298 291 285 282 284 286 281 278 276 277 273
202 232 264 275 297 97 174 268 305 281 286 290 267 258 288 314 318 318 317 317 319 319 320 318 319 321 319 317 314 310 311 312 312 304 293 286 286 286 284 280 281 275 274 273
178 217 258 294 115 188 237 295 308 304 293 285 280 293 305 313 317 323 323 324 326 325 323 323 325 326 322 318 315 317 320 321 319 311 302 304 295 294 290 279 276 281 281 285
196 219 250 164 204 254 291 288 297 296 294 289 291 298 308 313 315 318 319 322 325 323 322 325 329 331 323 318 321 325 327 325 321 320 317 314 305 303 304 297 290 293 290 292
253 268 262 253 269 287 283 277 285 288 289 286 285 290 302 309 315 320 321 322 324 326 327 328 332 333 323 320 325 326 326 324 323 324 325 328 321 316 312 302 295 295 299 301
261 287 309 291 270 283 296 303 309 311 297 284 282 289 296 305 311 316 320 323 326 329 326 324 329 329 329 330 329 328 326 326 328 328 325 325 322 312 307 298 300 301 294 290
238 249 242 276 308 313 307 308 310 314 315 312 293 289 302 305 310 315 319 325 329 329 326 326 328 329 330 332 331 329 330 332 330 329 328 328 326 327 328 325 323 320 321 314
247 283 256 280 303 314 304 306 311 308 301 307 312 304 305 307 313 319 321 326 326 324 324 325 328 328 331 333 333 330 325 324 323 327 328 329 330 331 329 329 328 331 329 323
274 300 292 292 296 313 314 317 321 324 320 314 313 317 316 316 317 320 319 318 319 322 324 325 326 327 330 331 331 330 327 326 327 323 324 324 324 323 321 323 327 329 329 330
273 239 255 288 305 314 323 330 334 329 329 330 326 321 321 318 314 312 314 319 323 325 325 327 326 325 330 331 331 329 325 322 321 322 325 325 322 321 319 317 317 319 327 334
296 290 285 290 296 310 323 324 316 312 319 320 319 316 313 309 307 309 315 322 324 320 320 322 319 321 326 326 326 326 325 329 332 332 330 328 326 323 320 319 318 321 325 325
281 293 295 297 297 301 296 289 285 293 304 305 305 313 319 319 319 318 318 318 310 304 307 310 312 317 321 321 322 321 322 327 335 336 333 330 330 327 323 321 323 325 319 318
237 256 260 263 274 284 291 292 288 293 294 297 308 315 315 313 308 308 311 314 314 311 309 309 312 318 319 320 321 319 320 323 326 326 326 326 328 328 328 326 324 321 318 323
262 268 275 277 272 271 279 284 287 290 294 299 300 298 294 293 296 302 308 312 313 313 314 314 323 329 318 318 326 319 322 322 321 321 322 324 331 329 325 321 320 319 317 318
293 295 291 289 285 274 276 283 289 291 291 292 297 300 302 302 304 307 307 299 288 288 299 311 316 312 311 314 326 323 321 320 320 320 321 320 320 320 318 316 316 314 313 311
294 296 295 292 292 286 276 275 277 284 292 290 282 286 292 299 303 302 305 302 302 305 309 318 321 311 310 319 328 327 324 321 317 315 316 316 315 314 313 313 312 311 311 311
294 294 294 294 295 295 294 287 278 282 292 291 285 286 294 301 305 300 280 276 298 313 319 310 309 314 323 329 326 322 319 319 317 314 311 309 308 308 309 310 309 308 309 309
283 281 286 290 287 290 300 294 284 280 280 281 282 283 284 286 291 296 300 296 302 312 318 309 315 322 329 333 322 317 314 312 310 309 306 304 303 303 303 305 304 304 304 305
277 283 286 289 290 295 299 300 295 285 280 282 279 275 278 290 292 271 274 302 314 316 315 313 321 325 329 328 315 309 305 303 301 299 298 299 298 297 297 297 298 299 299 298
280 282 284 290 288 283 285 298 302 296 295 293 291 287 277 266 275 292 297 300 308 315 313 314 320 324 326 312 307 302 298 294 294 297 296 297 294 294 293 293 293 294 293 290
272 274 274 271 270 278 286 292 294 295 297 299 301 297 291 286 283 288 295 297 299 309 312 307 308 312 311 305 300 297 296 301 306 304 296 294 293 292 291 291 290 286 285 284
281 281 285 290 285 276 277 277 280 285 285 284 291 294 295 297 299 299 300 303 304 305 303 303 304 304 304 303 301 297 295 294 293 292 291 289 288 286 287 286 284 284 282 280